CZ-4C DEB, 43280

Orbit data source: Space-Track

CZ-4C DEB, 43280 is space debris in LEO originally from a launch on Tue, 10 Apr 2018 UTC launched from the Jiuquan Satellite Launch Center, China (JSC). Debris objects in space refer to the collection of defunct objects orbiting the Earth. Examples of debris include non-operational satellites, rocket bodies, and fragments generated from explosions, collisions, or faulty payload assembly.

Loading next visibility...
CZ-4C DEB details
Identifier
43280, 2018-034F
Orbit
LEO
Last TLE update10 hours ago
Origin
Flag of CNCNSA (CN / PRC)
ManufacturerUnknown
MissionSpacecraft
Bus & MotorUnknown
MassUnknown
Launch date (UTC)
2018-04-10 (7 years ago)
Launch vehicleUnknown
Launch site
Jiuquan Satellite Launch Center, China (JSC)
Object type
Payload
Rocket body
Debris
Shape & HBRUnknown
Radar Cross SectionLarge (>1 m²)

Expand to show TLE details & history

TLE from 10 hours ago
0 CZ-4C DEB
1 43280U 18034F   24361.22845812  .00000135  00000-0  33300-3 0  9992
2 43280  63.4013  49.7549 0222372   5.7496 354.6004 13.44238177329526
Epoch: 2024-12-26T05:28Z
Definitive object data (Epoch: 2024-12-26T05:28:58.781Z)
Latitude-0.00003°
Longitude-127.7009°
Altitude929.905 km
Speed7.469 km/s
True Right ascension03h 19m 01s
True Declination0° 00' 00"
Sunlit
Object was in full shadow at TLE epoch
Visualization TLE readout
Latitude15.1391°
Longitude43.51251°
Altitude1,247.288 km
Speed7.159 km/s
Apparent Right ascension15h 02m 05s
Apparent Declination-40° 10' 41"
Sunlit
Object is in daylight
Visualization observer readout
Local Sidereal Time14:34:40
Azimuth174.692° S
Elevation9.662°
Doppler factor1
Orbital elements
Apogee altitude1,258.485 km
Perigee altitude926.239 km
Semi-major axis7,470.499 km
Eccentricity0.0222372
Inclination63.4013°
RAAN49.7549°
Arg. of periapsis5.7496°
True anomaly354.3538°
Mean anomaly354.6004°
Eccentric anomaly354.47779°
Mean motion3.36139 °/min
BSTAR0.000333
Orbital period107.1 mins
Loading maneuver chart data...
Loading historical data...
Loading historical data...
Loading historical data...
Loading historical data...
Loading historical data...
Loading historical data...
Loading historical data...

CZ-4C DEB Visibility forecast

Observer location: undefined°, undefined

Span
Click to sort rows by Start time (UTC) header in descending order
Start Az.
Max El. time (UTC)
Max El. Az.
Max El.
End time (UTC)
End Az.
11 mins2024-12-27 04:48:42.231Z192.587° SSW2024-12-27 04:53:42.231Z122.309° SE39.889°2024-12-27 04:59:42.231Z42.215° NE
9 mins2024-12-27 06:40:42.231Z267.211° W2024-12-27 06:44:42.231Z317.374° NNW26.208°2024-12-27 06:49:42.231Z14.492° NNE
11 mins2024-12-27 12:20:42.231Z348.387° N2024-12-27 12:25:42.231Z41.706° NE26.003°2024-12-27 12:31:42.231Z97.422° ESE
12 mins2024-12-27 14:11:42.231Z320.247° NNW2024-12-27 14:16:42.231Z255.342° W43.747°2024-12-27 14:23:42.231Z157.488° SSE
|